1511647201.22,55892,7.13,72874.8,-3.61,-4.89,-5.15,0,*53
1511647202.5,55893,7.13,72874.0,-3.59,-4.85,-5.03,0,*52
1511647203.75,55894,7.13,72878.3,-3.61,-4.89,-5.07,0,*56
1511647205.01,55895,7.13,72874.0,-3.61,-5.03,-5.15,0,*57
1511647206.27,55896,7.13,72878.3,-3.61,-5.03,-5.07,0,*57
1511647207.52,55897,7.13,72880.5,-3.61,-5.03,-5.15,0,*55
1511647208.77,55898,7.13,72882.3,-3.61,-4.93,-5.15,0,*52
1511647210.03,55899,7.13,72880.8,-3.61,-5.03,-5.07,0,*58
1511647211.27,55900,7.13,72886.0,-3.61,-4.93,-5.15,0,*52
1511647212.53,55901,7.13,72886.8,-3.61,-4.89,-5.07,0,*5B
1511647213.78,55902,7.13,72886.3,-3.61,-4.89,-5.15,0,*5B
1511647215.01,55903,7.13,72882.3,-3.65,-4.99,-5.19,0,*53
1511647216.26,55904,7.13,72880.5,-3.61,-5.07,-5.15,0,*5A
1511647217.52,55905,7.13,72882.0,-3.61,-5.07,-5.19,0,*57
1511647218.78,55906,7.13,72884.8,-3.61,-5.07,-5.19,0,*54
1511647220.03,55907,7.13,72882.3,-3.61,-5.07,-5.19,0,*55
1511647221.28,55908,7.13,72878.8,-3.61,-4.93,-5.15,0,*5A
1511647222.54,55909,7.13,72876.5,-3.61,-5.03,-5.15,0,*53
1511647223.79,55910,7.13,72874.5,-3.61,-5.03,-5.15,0,*5B
1511647225.05,55911,7.13,72874.0,-3.61,-5.03,-5.15,0,*5A
1511647226.3,55912,7.13,72872.5,-3.61,-5.03,-5.15,0,*59
1511647227.56,55913,7.13,72868.8,-3.61,-5.03,-5.15,0,*58
1511647228.81,55914,7.13,72870.8,-3.61,-4.93,-5.15,0,*57
1511647230.05,55915,7.13,72874.0,-3.61,-4.93,-5.07,0,*55
1511647231.31,55916,7.13,72868.0,-3.61,-4.89,-5.07,0,*5D
1511647232.57,55917,7.13,72868.8,-3.61,-5.03,-5.15,0,*5C
1511647233.81,55918,7.13,72866.8,-3.61,-4.93,-5.15,0,*5B
1511647235.06,55919,7.13,72868.8,-3.61,-4.93,-5.15,0,*5A
1511647236.3,55920,7.13,72868.5,-3.61,-4.93,-5.15,0,*50
1511647237.56,55921,7.13,72868.5,-3.61,-5.03,-5.15,0,*59
1511647238.81,55922,7.13,72870.3,-3.61,-4.93,-5.07,0,*51
1511647240.06,55923,7.13,72868.0,-3.61,-5.03,-5.15,0,*5B
1511647241.31,55924,7.13,72872.0,-3.61,-4.93,-5.07,0,*57
1511647242.56,55925,7.13,72872.0,-3.61,-4.93,-5.15,0,*55
1511647243.82,55926,7.13,72876.8,-3.61,-5.03,-5.15,0,*5E
1511647245.06,55927,7.13,72874.0,-3.61,-4.93,-5.07,0,*54
1511647246.31,55928,7.13,72874.3,-3.61,-4.93,-5.15,0,*58
1511647247.56,55929,7.13,72876.5,-3.61,-4.93,-5.15,0,*59
1511647248.8,55930,7.13,72880.8,-3.61,-4.93,-5.07,0,*52
1511647250.05,55931,7.13,72886.8,-3.61,-4.93,-5.07,0,*53
1511647251.3,55932,7.13,72884.8,-3.61,-4.93,-5.03,0,*54
1511647252.55,55933,7.13,72884.3,-3.61,-4.93,-5.07,0,*51
1511647253.81,55934,7.13,72880.8,-3.61,-4.89,-5.03,0,*59
1511647255.06,55935,7.13,72880.0,-3.61,-4.89,-5.07,0,*5C
1511647256.31,55936,7.13,72884.0,-3.61,-4.93,-5.15,0,*57
1511647257.56,55937,7.13,72886.0,-3.61,-4.89,-5.07,0,*5E
1511647258.81,55938,7.13,72880.8,-3.61,-4.93,-5.07,0,*5A
1511647260.03,55939,7.13,72880.8,-3.65,-4.99,-5.11,0,*52
1511647261.25,55940,7.13,72880.3,-3.65,-4.85,-4.99,0,*50
1511647262.5,55941,7.13,72882.0,-3.65,-4.81,-4.93,0,*5F
1511647263.71,55942,7.13,72878.5,-3.65,-4.73,-4.99,0,*5B
1511647264.96,55943,7.13,72880.0,-3.61,-4.77,-4.89,0,*5B
1511647266.2,55944,7.13,72878.5,-3.61,-4.77,-4.89,0,*5C
1511647267.45,55945,7.19,72878.3,-3.61,-4.81,-4.93,0,*5F
1511647268.69,55946,7.13,72878.3,-3.59,-4.73,-4.99,0,*50
1511647269.94,55947,7.13,72874.5,-3.61,-4.77,-5.03,0,*5C
1511647271.19,55948,7.13,72872.0,-3.61,-4.89,-4.93,0,*5A
1511647272.44,55949,7.19,72878.0,-3.61,-4.81,-5.03,0,*5B
1511647273.69,55950,7.13,72876.0,-3.61,-4.81,-5.03,0,*53
1511647274.93,55951,7.19,72876.0,-3.61,-4.77,-4.93,0,*53
1511647276.19,55952,7.19,72872.8,-3.61,-4.89,-5.03,0,*59
1511647277.44,55953,7.13,72872.0,-3.61,-4.81,-5.03,0,*50
1511647278.69,55954,7.13,72874.3,-3.61,-4.89,-5.03,0,*5F
1511647279.95,55955,7.13,72868.3,-3.61,-4.89,-5.07,0,*5A
1511647281.2,55956,7.13,72874.0,-3.61,-4.81,-5.07,0,*51
1511647282.45,55957,7.13,72872.0,-3.61,-4.89,-5.03,0,*5C
1511647283.71,55958,7.13,72870.5,-3.61,-4.81,-5.03,0,*5B
1511647284.96,55959,7.13,72864.5,-3.61,-4.89,-5.07,0,*56
1511647286.22,55960,7.19,72870.5,-3.61,-4.89,-5.03,0,*58
1511647287.47,55961,7.19,72872.0,-3.61,-4.81,-5.03,0,*51
1511647288.71,55962,7.13,72870.3,-3.59,-4.85,-4.99,0,*5F
1511647289.95,55963,7.13,72866.3,-3.61,-4.93,-5.07,0,*54
1511647291.19,55964,7.19,72868.5,-3.59,-4.85,-4.99,0,*59
1511647292.44,55965,7.13,72868.0,-3.61,-4.89,-4.93,0,*55
1511647293.71,55966,7.13,72868.3,-3.59,-4.77,-4.89,0,*57
1511647294.96,55967,7.19,72870.3,-3.61,-4.81,-5.03,0,*57
1511647296.21,55968,7.13,72874.3,-3.61,-4.89,-4.93,0,*58
1511647297.46,55969,7.13,72874.0,-3.61,-4.81,-5.03,0,*59
1511647298.73,55970,7.13,72870.0,-3.59,-4.77,-4.89,0,*50
1511647299.98,55971,7.13,72864.0,-3.61,-4.89,-5.03,0,*58
1511647301.22,55972,7.13,72862.8,-3.59,-4.85,-4.99,0,*5E
1511647302.46,55973,7.13,72860.3,-3.59,-4.77,-4.99,0,*52
1511647303.72,55974,7.13,72854.3,-3.61,-4.89,-5.07,0,*59
1511647304.99,55975,7.13,72856.8,-3.59,-4.89,-5.11,0,*54
1511647306.25,55976,7.13,72856.5,-3.61,-4.89,-5.07,0,*5B
1511647307.52,55977,7.13,72864.0,-3.59,-4.85,-5.03,0,*59
1511647308.79,55978,7.13,72862.0,-3.59,-4.85,-5.03,0,*56
1511647310.03,55979,7.19,72864.0,-3.59,-4.85,-4.99,0,*55
1511647311.29,55980,7.13,72856.3,-3.61,-4.89,-5.07,0,*52
1511647312.54,55981,7.13,72856.8,-3.61,-4.81,-5.07,0,*5B
1511647313.78,55982,7.13,72856.3,-3.59,-4.77,-4.99,0,*5C
1511647315.03,55983,7.13,72862.3,-3.61,-4.81,-5.07,0,*59
1511647316.3,55984,7.13,72860.5,-3.59,-4.85,-5.03,0,*55
1511647317.56,55985,7.13,72862.3,-3.61,-4.89,-5.07,0,*57
1511647318.81,55986,7.13,72856.3,-3.61,-4.89,-5.03,0,*50
1511647320.07,55987,7.13,72862.0,-3.61,-4.89,-5.15,0,*56
1511647321.34,55988,7.13,72864.5,-3.59,-4.85,-5.03,0,*59
1511647322.59,55989,7.13,72866.8,-3.61,-4.89,-5.15,0,*58
1511647323.87,55990,7.13,72868.3,-3.59,-4.89,-5.03,0,*5C
1511647325.15,55991,7.13,72864.0,-3.59,-4.89,-5.11,0,*5E
1511647326.39,55992,7.13,72864.0,-3.61,-4.93,-5.15,0,*59
1511647327.64,55993,7.19,72864.0,-3.61,-4.93,-5.07,0,*5B
1511647328.89,55994,7.13,72866.8,-3.61,-4.89,-5.15,0,*54
1511647330.16,55995,7.13,72870.0,-3.59,-4.85,-5.11,0,*56
1511647331.41,55996,7.13,72874.5,-3.61,-4.93,-5.07,0,*5E
1511647332.66,55997,7.13,72872.8,-3.59,-4.99,-5.03,0,*5A
1511647333.91,55998,7.13,72872.5,-3.61,-4.93,-5.15,0,*53
1511647335.16,55999,7.19,72870.3,-3.61,-5.03,-5.15,0,*5A
1511647336.44,56000,7.13,72868.5,-3.59,-4.89,-5.03,0,*5F
1511647337.71,56001,7.13,72862.5,-3.59,-4.85,-5.11,0,*51
1511647338.95,56002,7.13,72866.0,-3.61,-4.93,-5.15,0,*5A
1511647340.2,56003,7.13,72860.5,-3.59,-4.99,-5.11,0,*5E
1511647341.45,56004,7.13,72862.3,-3.59,-4.99,-5.03,0,*5A
1511647342.7,56005,7.13,72860.5,-3.61,-4.93,-5.07,0,*5E
1511647343.95,56006,7.13,72862.8,-3.61,-4.89,-5.15,0,*55
1511647345.23,56007,7.13,72862.3,-3.59,-4.89,-5.11,0,*5B
1511647346.48,56008,7.13,72862.0,-3.61,-4.93,-5.07,0,*53
1511647347.72,56009,7.13,72864.5,-3.61,-4.93,-5.15,0,*51
1511647348.97,56010,7.13,72862.5,-3.61,-4.93,-5.15,0,*59
1511647350.23,56011,7.13,72860.5,-3.61,-5.03,-5.07,0,*53
1511647351.48,56012,7.13,72860.3,-3.61,-4.89,-5.15,0,*50
1511647352.72,56013,7.19,72872.0,-3.61,-4.93,-5.15,0,*5A
1511647354.0,56014,7.19,72874.8,-3.59,-4.89,-5.11,0,*59
1511647355.25,56015,7.13,72868.0,-3.61,-4.93,-5.07,0,*5F
1511647356.52,56016,7.13,72874.3,-3.59,-4.89,-5.11,0,*5B
1511647357.78,56017,7.13,72876.8,-3.61,-4.89,-5.07,0,*56
1511647359.03,56018,7.13,72874.8,-3.61,-4.89,-5.07,0,*59
1511647360.31,56019,7.13,72874.0,-3.59,-4.89,-5.11,0,*54
1511647361.57,56020,7.13,72874.0,-3.61,-5.03,-5.15,0,*52
1511647362.81,56021,7.13,72874.5,-3.59,-4.99,-5.11,0,*5E
1511647364.06,56022,7.13,72874.8,-3.61,-4.93,-5.15,0,*58
1511647365.3,56023,7.19,72876.3,-3.59,-4.99,-5.11,0,*5C
1511647366.55,56024,7.13,72872.3,-3.61,-4.93,-5.15,0,*5E
1511647367.77,56025,7.13,72870.3,-3.61,-4.99,-5.11,0,*51
1511647369.03,56026,7.13,72872.3,-3.61,-5.03,-5.15,0,*54
1511647370.28,56027,7.13,72872.5,-3.61,-5.03,-5.19,0,*59
1511647371.53,56028,7.13,72876.5,-3.59,-4.99,-5.15,0,*53
1511647372.79,56029,7.13,72880.8,-3.61,-5.03,-5.19,0,*57
1511647374.04,56030,7.13,72880.5,-3.61,-5.07,-5.19,0,*5B
1511647375.3,56031,7.13,72882.5,-3.61,-5.03,-5.19,0,*5E
1511647376.56,56032,7.13,72882.3,-3.61,-5.03,-5.15,0,*51
1511647377.8,56033,7.19,72882.8,-3.59,-4.99,-5.11,0,*5D
1511647379.08,56034,7.13,72880.3,-3.59,-4.89,-5.11,0,*5B
1511647380.33,56035,7.13,72884.8,-3.61,-5.03,-5.15,0,*56
1511647381.59,56036,7.19,72888.5,-3.61,-5.03,-5.07,0,*56
1511647382.85,56037,7.19,72888.3,-3.61,-5.03,-5.07,0,*57
1511647384.11,56038,7.19,72888.0,-3.61,-5.03,-5.15,0,*5B
1511647385.36,56039,7.19,72888.3,-3.61,-4.93,-5.07,0,*51
1511647386.6,56040,7.19,72892.0,-3.61,-4.93,-5.15,0,*5C
1511647387.86,56041,7.19,72890.0,-3.61,-4.89,-5.07,0,*55
1511647389.11,56042,7.19,72892.3,-3.61,-4.93,-5.07,0,*5D
1511647390.36,56043,7.13,72884.8,-3.61,-4.89,-5.07,0,*57
1511647391.62,56044,7.13,72878.0,-3.61,-4.89,-5.07,0,*50
1511647392.88,56045,7.13,72874.5,-3.61,-5.03,-5.15,0,*51
1511647394.12,56046,7.19,72874.5,-3.61,-4.93,-5.15,0,*5A
1511647395.37,56047,7.19,72872.8,-3.61,-4.93,-5.15,0,*5B
1511647396.63,56048,7.13,72874.0,-3.61,-5.03,-5.07,0,*5F
1511647397.88,56049,7.19,72882.5,-3.61,-5.03,-5.15,0,*5D
1511647399.14,56050,7.13,72882.0,-3.61,-5.07,-5.15,0,*51
1511647400.4,56051,7.19,72884.3,-3.61,-5.03,-5.15,0,*54
1511647401.64,56052,7.19,72888.8,-3.61,-4.93,-5.15,0,*5F
1511647402.89,56053,7.19,72886.3,-3.61,-4.93,-5.15,0,*5E
1511647404.11,56054,7.13,72876.0,-3.65,-4.99,-5.19,0,*5B
1511647405.36,56055,7.19,72882.8,-3.61,-4.93,-5.07,0,*5B
1511647406.62,56056,7.13,72882.3,-3.61,-5.03,-5.07,0,*50
1511647407.87,56057,7.13,72876.5,-3.61,-4.93,-5.07,0,*59
1511647409.12,56058,7.19,72876.0,-3.61,-4.89,-5.07,0,*5D
1511647410.38,56059,7.19,72866.3,-3.61,-4.89,-5.15,0,*5F
1511647411.62,56060,7.13,72846.5,-3.61,-4.93,-5.15,0,*5E
1511647412.88,56061,7.13,72834.3,-3.61,-5.03,-5.15,0,*57
1511647414.13,56062,7.19,72854.8,-3.61,-4.89,-5.15,0,*57
1511647415.39,56063,7.19,72862.5,-3.65,-5.07,-5.19,0,*59
1511647416.65,56064,7.19,72870.3,-3.65,-5.07,-5.19,0,*5E
1511647417.9,56065,7.13,72872.5,-3.61,-5.03,-5.15,0,*53
1511647419.16,56066,7.13,72872.8,-3.61,-5.07,-5.19,0,*58
1511647420.42,56067,7.19,72876.0,-3.61,-5.03,-5.19,0,*5D
1511647421.66,56068,7.19,72874.5,-3.61,-4.93,-5.15,0,*56
1511647422.92,56069,7.13,72870.3,-3.61,-5.03,-5.15,0,*5F
1511647424.17,56070,7.19,72874.0,-3.59,-4.99,-5.11,0,*5A
1511647425.41,56071,7.19,72874.3,-3.61,-4.93,-5.15,0,*5E
1511647426.67,56072,7.13,72864.8,-3.61,-5.03,-5.15,0,*55
1511647427.92,56073,7.19,72870.5,-3.61,-5.03,-5.15,0,*54
1511647429.17,56074,7.13,72866.5,-3.61,-4.93,-5.07,0,*58
1511647430.42,56075,7.13,72866.8,-3.61,-4.93,-5.07,0,*59
1511647431.68,56076,7.13,72864.3,-3.61,-5.03,-5.15,0,*51
1511647432.92,56077,7.19,72870.8,-3.61,-4.93,-5.15,0,*58
1511647434.17,56078,7.13,72866.0,-3.61,-4.93,-5.15,0,*57
1511647435.39,56079,7.13,72868.3,-3.65,-4.99,-5.19,0,*54
1511647436.65,56080,7.19,72874.3,-3.65,-5.07,-5.19,0,*54
1511647437.9,56081,7.13,72874.5,-3.61,-4.93,-5.07,0,*52
1511647439.15,56082,7.13,72874.8,-3.61,-4.93,-5.07,0,*51
1511647440.4,56083,7.13,72876.5,-3.61,-4.93,-5.07,0,*50
1511647441.65,56084,7.19,72878.3,-3.61,-5.03,-5.15,0,*5C
1511647442.91,56085,7.19,72880.8,-3.61,-5.03,-5.15,0,*5D
1511647444.16,56086,7.19,72884.8,-3.61,-4.89,-5.07,0,*5E
1511647445.41,56087,7.13,72882.3,-3.61,-4.93,-5.07,0,*54
1511647446.67,56088,7.13,72880.5,-3.61,-4.89,-5.07,0,*50
1511647447.93,56089,7.19,72884.8,-3.61,-5.03,-5.15,0,*51
1511647449.18,56090,7.19,72882.8,-3.61,-5.03,-5.15,0,*59
1511647450.44,56091,7.19,72884.8,-3.61,-5.03,-5.15,0,*58
1511647451.69,56092,7.19,72886.3,-3.61,-5.15,-5.15,0,*5C
1511647452.95,56093,7.13,72886.5,-3.61,-5.03,-5.15,0,*5A
1511647454.21,56094,7.13,72882.5,-3.61,-5.03,-5.15,0,*5D
1511647455.46,56095,7.19,72880.0,-3.65,-5.07,-5.19,0,*50
1511647456.72,56096,7.19,72882.8,-3.61,-5.07,-5.15,0,*5B
1511647457.98,56097,7.13,72882.3,-3.61,-5.03,-5.15,0,*5E
1511647459.23,56098,7.19,72882.5,-3.61,-5.03,-5.15,0,*51
1511647460.48,56099,7.19,72878.5,-3.61,-4.93,-5.15,0,*58
1511647461.74,56100,7.19,72878.5,-3.61,-5.03,-5.07,0,*52
1511647463.0,56101,7.19,72876.8,-3.65,-5.07,-5.11,0,*54
1511647464.25,56102,7.19,72878.8,-3.65,-5.07,-5.19,0,*5F
1511647465.48,56103,7.13,72874.8,-3.65,-4.99,-5.19,0,*58
1511647466.74,56104,7.13,72872.0,-3.65,-5.07,-5.19,0,*59
1511647467.96,56105,7.19,72876.8,-3.65,-4.99,-5.19,0,*5E
1511647469.22,56106,7.19,72872.8,-3.61,-5.03,-5.07,0,*54
1511647470.5,56107,7.13,72872.5,-3.59,-4.89,-5.03,0,*59
1511647471.75,56108,7.19,72872.0,-3.61,-4.93,-5.07,0,*52
1511647472.97,56109,7.19,72872.8,-3.65,-4.99,-5.11,0,*5A
1511647474.23,56110,7.19,72878.3,-3.65,-5.07,-5.19,0,*5C
1511647475.48,56111,7.13,72872.3,-3.65,-5.11,-5.31,0,*50
1511647476.74,56112,7.19,72874.5,-3.65,-5.19,-5.23,0,*58
1511647478.0,56113,7.19,72872.3,-3.65,-5.19,-5.23,0,*59
1511647479.25,56114,7.13,72872.5,-3.65,-5.19,-5.31,0,*5D
1511647480.51,56115,7.13,72874.0,-3.65,-5.19,-5.23,0,*5F
1511647481.77,56116,7.13,72874.8,-3.65,-5.11,-5.23,0,*54
1511647483.05,56117,7.19,72876.5,-3.67,-5.11,-5.23,0,*57
1511647484.31,56118,7.19,72876.0,-3.65,-5.07,-5.23,0,*5D
1511647485.53,56119,7.19,72874.5,-3.65,-4.99,-5.11,0,*5B
1511647486.79,56120,7.13,72874.5,-3.65,-5.07,-5.11,0,*57
1511647488.05,56121,7.13,72872.5,-3.65,-5.07,-5.19,0,*5E
1511647489.3,56122,7.19,72874.3,-3.65,-5.07,-5.19,0,*5D
1511647490.53,56123,7.13,72870.5,-3.65,-4.99,-5.19,0,*5A
1511647491.75,56124,7.13,72868.0,-3.65,-4.99,-5.19,0,*5D
1511647492.98,56125,7.13,72870.5,-3.65,-4.99,-5.11,0,*54
1511647494.2,56126,7.19,72874.0,-3.65,-4.99,-5.11,0,*57
1511647495.45,56127,7.19,72872.8,-3.67,-4.99,-5.19,0,*5C
1511647496.7,56128,7.19,72876.0,-3.67,-4.99,-5.19,0,*53
1511647497.96,56129,7.13,72872.0,-3.65,-5.07,-5.19,0,*56
1511647499.21,56130,7.19,72874.0,-3.65,-5.07,-5.19,0,*5E
1511647500.47,56131,7.13,72870.8,-3.65,-5.07,-5.19,0,*5F
1511647501.72,56132,7.13,72874.0,-3.65,-5.11,-5.31,0,*51
1511647503.01,56133,7.19,72878.3,-3.67,-5.19,-5.23,0,*59
1511647504.27,56134,7.13,72876.3,-3.65,-5.19,-5.23,0,*5C
1511647505.53,56135,7.13,72878.0,-3.65,-5.19,-5.23,0,*5D
1511647506.78,56136,7.19,72876.5,-3.65,-5.11,-5.19,0,*5F
1511647508.06,56137,7.19,72876.5,-3.67,-5.11,-5.23,0,*55
1511647509.31,56138,7.13,72874.3,-3.65,-5.11,-5.23,0,*58
1511647510.58,56139,7.19,72878.0,-3.65,-5.23,-5.23,0,*58
1511647511.83,56140,7.19,72876.8,-3.65,-5.11,-5.23,0,*57
1511647513.11,56141,7.19,72878.0,-3.67,-5.19,-5.23,0,*5C
1511647514.39,56142,7.13,72872.5,-3.67,-5.11,-5.23,0,*57
1511647515.68,56143,7.13,72872.0,-3.67,-5.11,-5.23,0,*56
1511647516.96,56144,7.13,72872.8,-3.67,-5.19,-5.23,0,*59
1511647518.24,56145,7.19,72868.0,-3.67,-5.11,-5.23,0,*50
1511647519.49,56146,7.19,72864.0,-3.65,-5.11,-5.19,0,*58
1511647520.77,56147,7.19,72868.5,-3.67,-5.11,-5.19,0,*5B
1511647522.05,56148,7.13,72864.8,-3.67,-5.07,-5.19,0,*53
1511647523.28,56149,7.13,72864.8,-3.65,-4.99,-5.19,0,*56
1511647524.54,56150,7.19,72874.0,-3.65,-5.07,-5.19,0,*58
1511647525.79,56151,7.13,72870.0,-3.65,-5.07,-5.19,0,*59
1511647527.02,56152,7.13,72866.8,-3.65,-4.99,-5.19,0,*5C
1511647528.3,56153,7.19,72872.8,-3.67,-5.07,-5.19,0,*59
1511647529.55,56154,7.13,72874.0,-3.67,-4.99,-5.11,0,*50
1511647530.81,56155,7.13,72874.0,-3.65,-5.07,-5.19,0,*5D
1511647532.07,56156,7.13,72872.5,-3.65,-5.07,-5.19,0,*5E
1511647533.32,56157,7.19,72880.0,-3.65,-5.07,-5.19,0,*5F
1511647534.58,56158,7.19,72880.3,-3.65,-5.07,-5.19,0,*50
1511647535.81,56159,7.19,72878.8,-3.65,-4.99,-5.11,0,*5F
1511647537.03,56160,7.19,72876.0,-3.65,-4.99,-5.11,0,*55
1511647538.29,56161,7.13,72880.0,-3.65,-5.07,-5.19,0,*5A
1511647539.57,56162,7.13,72880.3,-3.67,-5.07,-5.19,0,*5B
1511647540.79,56163,7.19,72882.0,-3.65,-4.99,-5.11,0,*56
1511647542.05,56164,7.19,72884.8,-3.65,-5.07,-5.11,0,*57
1511647543.27,56165,7.13,72884.0,-3.65,-4.99,-5.11,0,*50
1511647544.52,56166,7.19,72886.0,-3.67,-4.99,-5.19,0,*59
1511647545.75,56167,7.19,72886.8,-3.65,-4.99,-5.11,0,*52
1511647547.03,56168,7.13,72884.3,-3.67,-5.07,-5.19,0,*51
1511647548.28,56169,7.13,72884.3,-3.67,-4.99,-5.19,0,*56
1511647549.5,56170,7.13,72880.3,-3.65,-4.99,-5.11,0,*54
1511647550.75,56171,7.13,72874.5,-3.67,-4.99,-5.19,0,*5F
1511647552.01,56172,7.19,72868.8,-3.65,-5.07,-5.19,0,*58
1511647553.24,56173,7.13,72868.5,-3.65,-4.99,-5.19,0,*5F
1511647554.46,56174,7.19,72876.3,-3.65,-4.99,-5.19,0,*58
1511647555.74,56175,7.13,72874.5,-3.67,-5.07,-5.11,0,*55
1511647556.99,56176,7.19,72880.0,-3.67,-4.99,-5.19,0,*58
1511647558.24,56177,7.19,72874.5,-3.67,-4.99,-5.19,0,*59
1511647559.5,56178,7.19,72872.5,-3.65,-5.07,-5.19,0,*52
1511647560.76,56179,7.19,72876.8,-3.65,-5.07,-5.19,0,*53
1511647562.02,56180,7.19,72876.8,-3.65,-5.07,-5.19,0,*55
1511647563.27,56181,7.19,72878.8,-3.65,-5.07,-5.19,0,*54
1511647564.53,56182,7.19,72882.3,-3.65,-5.07,-5.19,0,*57
1511647565.76,56183,7.19,72882.8,-3.65,-4.99,-5.19,0,*50
1511647567.01,56184,7.13,72880.5,-3.67,-4.99,-5.11,0,*5D
1511647568.23,56185,7.19,72884.8,-3.65,-4.99,-5.11,0,*5E
1511647569.5,56186,7.19,72884.0,-3.67,-4.93,-5.11,0,*55
1511647570.72,56187,7.19,72878.0,-3.65,-4.99,-5.11,0,*5C
1511647571.95,56188,7.19,72874.5,-3.65,-4.99,-5.19,0,*5B
1511647573.19,56189,7.19,72870.5,-3.65,-4.93,-5.19,0,*50
1511647574.42,56190,7.19,72874.8,-3.65,-4.99,-5.11,0,*5A
1511647575.64,56191,7.19,72872.8,-3.65,-4.99,-5.11,0,*5B
1511647576.89,56192,7.19,72870.5,-3.65,-4.93,-5.11,0,*52
1511647578.14,56193,7.13,72868.3,-3.65,-5.07,-5.19,0,*57
1511647579.37,56194,7.19,72866.8,-3.65,-4.99,-5.19,0,*56
1511647580.61,56195,7.13,72864.8,-3.65,-4.93,-5.11,0,*55
1511647581.89,56196,7.19,72870.0,-3.67,-4.93,-5.19,0,*5C
1511647583.13,56197,7.19,72864.3,-3.65,-4.93,-5.11,0,*57
1511647584.41,56198,7.19,72866.8,-3.67,-4.93,-5.11,0,*5A
1511647585.65,56199,7.19,72870.5,-3.65,-4.93,-5.11,0,*59
1511647586.87,56200,7.19,72870.0,-3.65,-4.99,-5.11,0,*50
1511647588.13,56201,7.19,72868.3,-3.65,-5.07,-5.19,0,*5F
1511647589.39,56202,7.19,72870.5,-3.65,-5.07,-5.19,0,*5C
1511647590.65,56203,7.19,72870.3,-3.65,-5.07,-5.19,0,*5D
1511647591.91,56204,7.19,72870.3,-3.65,-5.07,-5.19,0,*5A
1511647593.16,56205,7.19,72868.8,-3.65,-5.07,-5.19,0,*5B
1511647594.41,56206,7.19,72868.8,-3.67,-4.99,-5.11,0,*54
1511647595.67,56207,7.19,72870.5,-3.65,-5.07,-5.19,0,*59
1511647596.93,56208,7.13,72866.5,-3.65,-5.07,-5.23,0,*5F
1511647598.19,56209,7.19,72868.5,-3.65,-5.07,-5.23,0,*5E
1511647599.45,56210,7.19,72864.0,-3.65,-5.11,-5.23,0,*51
1511647600.68,56211,7.19,72868.5,-3.65,-4.99,-5.23,0,*51
1511647601.93,56212,7.19,72868.5,-3.65,-5.07,-5.19,0,*5D
1511647603.19,56213,7.19,72868.8,-3.65,-5.07,-5.19,0,*5C
1511647604.47,56214,7.19,72870.8,-3.67,-5.11,-5.11,0,*56
1511647605.73,56215,7.19,72872.5,-3.65,-5.07,-5.19,0,*5A
1511647607.01,56216,7.19,72868.8,-3.67,-5.07,-5.19,0,*5B
1511647608.26,56217,7.19,72872.0,-3.65,-5.11,-5.23,0,*56
1511647609.52,56218,7.19,72874.5,-3.65,-5.19,-5.23,0,*51
1511647610.78,56219,7.19,72870.8,-3.65,-5.11,-5.23,0,*58
1511647612.01,56220,7.19,72878.0,-3.65,-4.99,-5.23,0,*53
1511647613.26,56221,7.19,72872.8,-3.65,-5.07,-5.11,0,*55
1511647614.55,56222,7.19,72874.3,-3.67,-5.07,-5.19,0,*5C
1511647615.81,56223,7.13,72872.0,-3.65,-5.07,-5.23,0,*56
1511647617.06,56224,7.19,72872.0,-3.65,-5.11,-5.23,0,*56
1511647618.32,56225,7.19,72872.5,-3.65,-5.19,-5.31,0,*5C
1511647619.58,56226,7.13,72874.3,-3.65,-5.19,-5.23,0,*5C
1511647620.83,56227,7.19,72874.8,-3.65,-5.11,-5.23,0,*55
1511647622.09,56228,7.13,72872.3,-3.65,-5.07,-5.23,0,*5D
1511647623.35,56229,7.19,72874.3,-3.65,-5.07,-5.23,0,*5C
1511647624.63,56230,7.19,72872.3,-3.67,-5.11,-5.23,0,*51
1511647625.91,56231,7.19,72872.3,-3.67,-5.11,-5.23,0,*50
1511647627.18,56232,7.19,72868.3,-3.65,-5.07,-5.23,0,*56
1511647628.4,56233,7.13,72870.0,-3.65,-4.99,-5.23,0,*51
1511647629.63,56234,7.19,72872.0,-3.65,-4.99,-5.19,0,*5F
1511647630.88,56235,7.19,72878.0,-3.67,-4.99,-5.19,0,*5C
1511647632.13,56236,7.19,72876.8,-3.65,-5.07,-5.19,0,*5B
1511647633.39,56237,7.13,72878.3,-3.65,-5.07,-5.19,0,*5A
1511647634.65,56238,7.19,72876.5,-3.65,-5.07,-5.19,0,*55
1511647635.91,56239,7.19,72882.3,-3.65,-5.07,-5.19,0,*54
1511647637.17,56240,7.13,72878.8,-3.65,-5.07,-5.19,0,*5A
1511647638.42,56241,7.13,72880.8,-3.65,-5.11,-5.19,0,*5C
1511647639.67,56242,7.19,72882.5,-3.65,-5.11,-5.19,0,*5F
1511647640.93,56243,7.19,72882.0,-3.65,-5.19,-5.23,0,*5F
1511647642.18,56244,7.19,72882.8,-3.65,-5.19,-5.31,0,*5B
1511647643.44,56245,7.19,72884.0,-3.65,-5.19,-5.31,0,*5A
1511647644.7,56246,7.19,72884.3,-3.65,-5.23,-5.31,0,*50
1511647645.98,56247,7.19,72880.0,-3.67,-5.19,-5.23,0,*59
1511647647.24,56248,7.19,72882.0,-3.65,-5.19,-5.23,0,*54
1511647648.52,56249,7.19,72878.8,-3.67,-5.11,-5.31,0,*5C
1511647649.78,56250,7.19,72876.3,-3.65,-5.19,-5.23,0,*5D
1511647651.03,56251,7.19,72872.5,-3.65,-5.11,-5.23,0,*54
1511647652.28,56252,7.19,72874.0,-3.67,-4.99,-5.23,0,*54
1511647653.54,56253,7.19,72868.0,-3.65,-5.07,-5.19,0,*58
1511647654.8,56254,7.19,72870.8,-3.65,-5.11,-5.23,0,*51
1511647656.05,56255,7.19,72868.8,-3.65,-5.11,-5.23,0,*50
1511647657.33,56256,7.19,72870.0,-3.67,-5.11,-5.19,0,*58
1511647658.55,56257,7.19,72870.8,-3.65,-4.99,-5.19,0,*5A
1511647659.81,56258,7.19,72874.0,-3.65,-5.07,-5.19,0,*53
1511647661.06,56259,7.19,72874.0,-3.67,-4.99,-5.19,0,*56
1511647662.32,56260,7.19,72878.3,-3.65,-5.07,-5.19,0,*58
1511647663.6,56261,7.19,72880.8,-3.67,-5.07,-5.19,0,*5B
1511647664.86,56262,7.19,72878.0,-3.65,-5.07,-5.19,0,*5A
1511647666.15,56263,7.19,72880.0,-3.67,-5.07,-5.19,0,*59
1511647667.4,56264,7.19,72882.5,-3.65,-5.07,-5.19,0,*5C
1511647668.65,56265,7.19,72882.8,-3.67,-4.99,-5.19,0,*59
1511647669.91,56266,7.19,72884.0,-3.65,-5.07,-5.19,0,*5E
1511647671.2,56267,7.19,72882.5,-3.67,-5.19,-5.23,0,*5B
1511647672.48,56268,7.19,72882.8,-3.67,-5.11,-5.23,0,*5C
1511647673.74,56269,7.19,72884.3,-3.65,-5.07,-5.23,0,*58
1511647674.99,56270,7.19,72884.0,-3.65,-5.11,-5.23,0,*57
1511647676.25,56271,7.19,72882.8,-3.65,-5.11,-5.23,0,*56
1511647677.47,56272,7.19,72878.0,-3.65,-4.99,-5.19,0,*5D
1511647678.72,56273,7.19,72882.0,-3.67,-4.99,-5.19,0,*5E
1511647679.95,56274,7.19,72878.8,-3.65,-4.99,-5.19,0,*5B
1511647681.2,56275,7.19,72880.8,-3.65,-5.07,-5.19,0,*5C
1511647682.43,56276,7.19,72876.5,-3.65,-4.99,-5.11,0,*51
1511647683.65,56277,7.19,72874.5,-3.65,-4.99,-5.19,0,*58
1511647684.9,56278,7.19,72876.5,-3.67,-4.99,-5.11,0,*5D
1511647686.12,56279,7.19,72876.3,-3.65,-4.85,-4.99,0,*52
1511647687.36,56280,7.19,72874.8,-3.65,-4.85,-4.93,0,*5E
1511647688.6,56281,7.19,72874.5,-3.67,-4.81,-4.99,0,*53
1511647689.82,56282,7.19,72876.3,-3.65,-4.93,-4.99,0,*51
1511647691.06,56283,7.19,72872.5,-3.67,-4.85,-4.99,0,*55
1511647692.32,56284,7.19,72868.8,-3.65,-4.81,-5.07,0,*52
1511647693.57,56285,7.19,72868.5,-3.65,-4.85,-5.07,0,*57
1511647694.79,56286,7.19,72868.0,-3.65,-4.99,-5.07,0,*59
1511647696.07,56287,7.19,72870.0,-3.67,-5.07,-5.11,0,*5B
1511647697.3,56288,7.19,72866.0,-3.65,-4.99,-5.19,0,*58
1511647698.55,56289,7.19,72866.8,-3.67,-4.99,-5.19,0,*5B
1511647699.83,56290,7.19,72866.3,-3.67,-5.07,-5.11,0,*5D
1511647701.09,56291,7.19,72868.8,-3.65,-5.07,-5.19,0,*56
1511647702.37,56292,7.13,72864.3,-3.67,-5.07,-5.19,0,*57
1511647703.63,56293,7.19,72874.5,-3.65,-5.07,-5.19,0,*54
1511647704.86,56294,7.19,72868.5,-3.65,-4.99,-5.19,0,*55
1511647706.11,56295,7.19,72866.0,-3.65,-5.07,-5.11,0,*5A
1511647707.34,56296,7.19,72866.5,-3.65,-4.99,-5.19,0,*57
1511647708.6,56297,7.19,72868.3,-3.65,-5.07,-5.11,0,*58
1511647709.82,56298,7.19,72872.3,-3.65,-4.99,-5.19,0,*59
1511647711.1,56299,7.19,72868.8,-3.67,-5.07,-5.11,0,*54
1511647712.33,56300,7.19,72864.3,-3.65,-4.99,-5.19,0,*59
1511647713.61,56301,7.19,72866.5,-3.67,-5.07,-5.11,0,*54
1511647714.87,56302,7.19,72866.3,-3.65,-5.07,-5.19,0,*5D
1511647716.09,56303,7.19,72868.5,-3.65,-4.99,-5.11,0,*52
1511647717.31,56304,7.19,72876.0,-3.65,-4.99,-5.19,0,*5D
1511647718.54,56305,7.19,72876.5,-3.65,-4.99,-5.19,0,*5C
1511647719.82,56306,7.19,72872.0,-3.67,-5.07,-5.19,0,*5B
1511647721.08,56307,7.19,72870.5,-3.65,-5.07,-5.19,0,*58
1511647722.36,56308,7.19,72870.3,-3.67,-5.07,-5.19,0,*55
1511647723.62,56309,7.19,72872.5,-3.65,-5.07,-5.19,0,*56
1511647724.91,56310,7.19,72874.8,-3.67,-5.07,-5.19,0,*5C
1511647726.16,56311,7.19,72876.5,-3.65,-5.11,-5.19,0,*58
1511647727.41,56312,7.19,72874.0,-3.65,-5.11,-5.19,0,*5B